{"data":{"norad_id":46796,"epoch":"2026-07-05T19:55:32.155392Z","epoch_age_seconds":6646162,"freshness":"OLD","line1":"1 46796U 20074BK  26186.83023328  .10797741  12403-4  64605-3 0  9991","line2":"2 46796  53.0179  36.4773 0010092 270.9482  89.0409 16.41340234316089","mean_motion":16.41340234,"eccentricity":0.0010092,"inclination_deg":53.0179,"raan_deg":36.4773,"arg_perigee_deg":270.9482,"mean_anomaly_deg":89.0409,"bstar":0.00064605,"rev_number":31608,"period_min":87.733181102292,"perigee_km":155.63917682197,"apogee_km":168.84027320373,"semimajor_km":6540.3767250128,"source":"CELESTRAK","updated_at":"2026-07-06T09:01:09.201490Z"}}